User: anonymous   Login
Location: Unspecified
(0.0000°N, 0.0000°E)
Time: 09:22:03
(UTC+00:00)
Language:

DOVE 2 - Orbit

View from above orbital plane
View from above orbital plane
View from above satellite
View from above satellite

Ground track
Ground track

The orbit data is extracted from the following two-line orbital elements,

1 39132U 13015C   17327.80974611  .00000616  00000-0  52742-4 0  9991
2 39132  64.8739 129.9801 0036899 252.5011 107.2092 15.06798678252544
Epoch (UTC): 23 November 2017 19:26:02
Eccentricity: 0.0036899
inclination: 64.8739°
perigee height: 520 km
apogee height: 571 km
right ascension of ascending node: 129.9801°
argument of perigee: 252.5011°
revolutions per day: 15.06798678
mean anomaly at epoch: 107.2092°
orbit number at epoch: 25254

The dashed part of the orbit path shows where the satellite is in the earth's shadow,  

DLR